2008 JS14

Japanese version
Home page
Total 6,336 html files since Dec. 4, 1995
Updated on September 7, 2008

---------------------------------------------------------------------

* Profile

Discovery Date May 6, 2008
Magnitude 19.1 mag
Discoverer Siding Spring Survey

* Orbital Elements

The following orbital elements are taken from MPEC 2008-P34:

Epoch 2008 May 14.0 TT = JDT 2454600.5                  MPC
M 359.22981              (2000.0)            P               Q
n   0.02454170     Peri.    2.04878     +0.69449416     +0.64157851
a  11.7273428      Node   312.15307     -0.66621637     +0.40248601
e   0.7443501      Incl.   26.05782     -0.27172339     +0.65297934
P  40.2            H   13.3           G   0.15           U   3
From 59 observations 2008 May 6-Aug. 6, mean residual 0".29.

* Magnitudes Graph

        H = 13.0  G = 0.15

---------------------------------------------------------------------

The orbital elements are published at the MPC Ephemerides and Orbital Elements.
The magnitudes graphs are made with Comet for Windows.

---------------------------------------------------------------------

Copyright(C) 1995-2008 Seiichi Yoshida (comet@aerith.net). All rights reserved.